Погода Унский Маяк

Погода Унский Маяк : погода сейчас, прогноз погоды и архив. Всё, что Вы хотите узнать о погоде Унский Маяк!

Поиск расширенной информации на нашем сайте:

Другие новости

Новости СМИ2

Главная страница сайта

Новости сайта

03.07.2017

Напоминаем, что на нашем специализированном сайте Метеоцентр.Азия вы можете получить высокодетализированные автоматические прогнозы погоды по пунктам России, СНГ и мира в авиационном формате (включающие направление и скорость ветра, видимость, явления погоды, количество и форму облачности, нижнюю и верхнюю границу облачности).


Погода Унский Маяк - сегодня

Время (UTC), дата Ветер
(°,м/с) 
Видим.   Явления Облачность Т
(°С)
Тd
(°С)
f(%) Тe
(°С)
Pmin
(гПа)
dP
(гПа)
Po
(мм)
O2
(г/м3)
Тmin Tmax R s Состояние
почвы
06 09.02.18 200 (Ю) 20000 м    10/10 600 м 
[Sc]
-5.6 -7 90 -8  1027.6  770  318  -5.6         
09 09.02.18 200 (Ю) 20000 м    10/10 600 м 
[Sc]
-5.5 -7.3 87 -8  1028.6  771  318           
15 09.02.18 160 (Ю) 20000 м    3/0 средняя 
[Ac lent]
-10.3 -10.9 95 -12  1028.8  771  324    -4.7       
06 10.02.18 150 (ЮВ) 20000 м    10/10 600 м 
[Sc]
-8.5 -9.6 92 -10  1027.4  -0.7  770  321           
09 10.02.18 180 (Ю) 20000 м    9/9 600 м 
[Sc]
-7.4 -9.1 88 -9  1027  -0.4  770  320           
06 11.02.18 160 (Ю) 4000 м  слаб. снег  10/3 600 м средняя 
[Sc|As op]
-7.3 -8.2 93 -7  1020.5  -0.7  765  318           
09 11.02.18 150 (ЮВ) 4000 м  слаб. снег  10/10 300 м 
[Frnb|Ns]
-6.2 -7.4 91 -6  1019.8  -0.7  764  316           
06 12.02.18 180 (Ю) 20000 м  {снег}  10/10 600 м 
[Sc]
-5.4 -6.4 93 -5  1019.2  764  315           
09 12.02.18 180 (Ю) 20000 м    10/10 600 м 
[Sc]
-4.7 -5.6 93 -4  1019.2  764  314           
06 13.02.18 200 (Ю) 20000 м    10/8 600 м средняя 
[Sc|Ac und]
-5.7 -7.2 89 -7  1021.6  0.3  766  316  -6         
09 13.02.18 210 (ЮЗ) 20000 м    10/8 600 м средняя 
[Sc|Ac und]
-5.1 -6.8 88 -7  1022.2  0.6  766  315           
06 14.02.18 220 (ЮЗ) 20000 м  позёмок  10/3 600 м средняя 
[Sc|As op]
-6.9 -8.2 90 -10  1026.8  1.1  770  319           
09 14.02.18 220 (ЮЗ) 20000 м  позёмок  4/0 средняя, верхняя 
[Ac lent|Ci fib]
-8.5 -10.9 83 -13  1027.7  0.9  770  321           
06 17.02.18 230 (ЮЗ) 20000 м    9/8 600 м средняя 
[Sc|Ac lent]
-9.6 -10.8 91 -11  1024.1  -0.1  768  322           
09 17.02.18 220 (ЮЗ) 20000 м    9/9 600 м 
[Sc]
-8.4 -9.9 89 -10  1024.2  0.1  768  320           
06 18.02.18 220 (ЮЗ) 20000 м  {ливн. осадки}  10/6 600 м средняя 
[Sc|Ac As]
-9.3 -10 95 -11  1024.6  768  321           
09 18.02.18 230 (ЮЗ) 20000 м  в посл. час ливневой снег  9/6 300 м кучево-дожд., средняя 
[Cb cap|Ac lent]
-7.2 -8.9 88 -9  1024.8  0.2  768  319           
06 19.02.18 020 (С) 20000 м  {снег}  9/9 600 м 
[Sc]
-4.9 -6.2 91 -7  1023  -0.2  767  315           
09 19.02.18 010 (С) 20000 м    10/10 600 м 
[Sc]
-5.1 -6.8 88 -7  1023.2  0.2  767  316           
06 20.02.18 360 (С) 20000 м    9/8 600 м средняя 
[Sc|Ac lent]
-7.1 -9.6 82 -10  1025.2  -0.1  768  319           
09 20.02.18 040 (СВ) 2000 м  слаб. ливневой снег  10/0 кучево-дожд. 
[Cb cap]
-6.5 -8.1 88 -10  1025.3  0.1  769  318           
06 21.02.18 230 (ЮЗ) 20000 м    3/0 средняя 
[Ac lent]
-16.3 -17.6 90 -19  1022.2  -0.4  766  330           
09 21.02.18 230 (ЮЗ) 20000 м    6/3 600 м средняя 
[Sc|Ac lent]
-11.9 -13.2 90 -14  1022.2  766  324           
06 22.02.18 150 (ЮВ) 20000 м  {снег}  8/0 средняя, верхняя 
[Ac lent|Cs]
-14.9 -16.2 90 -15  1020.1  0.1  765  327           
09 22.02.18 090 (В) 20000 м    4/0 средняя, верхняя 
[Ac lent|Ci fib]
-12.3 -13.6 90 -17  1021.3  1.2  766  324           
Время (UTC), дата Ветер
(°,м/с) 
Видим.   Явления Облачность Т
(°С)
Тd
(°С)
f(%) Тe
(°С)
Pmin
(гПа)
dP
(гПа)
Po
(мм)
O2
(г/м3)
Тmin Tmax R s Состояние
почвы

Для получения пояснительной информации подведите курсор к названию столбца.

ПОГОДА Унский Маяк - архив

Всё, что Вы хотите узнать о погоде Унский Маяк - удобно и подробно!

Выберите нужную дату (начиная с 1 января 2015* года) и нажмите кнопку "Найти".
Будут отображены архивные сводки погоды по пункту Унский Маяк, начиная с указанной даты.


Отображать данные в формате CSV (для использования в таблицах Excel)


Внимание! Наш архив погоды предназначен исключительно для личного некоммерческого использования в познавательных целях. Если Вам необходимы официальные справки о состоянии погоды (для производственных, юридических, коммерческих и т.п. целей), обращайтесь в органы Росгидромета.

*Примечание: данная дата относится к архиву по метеостанциям СССР (Россия, СНГ, Балтия).
Архив по метеостанциям Зарубежной Европы и Азии (кроме Китая) хранится 10 дней, по другим регионам земного шара (Китай, Африка, Америка, Австралия, Океания) - 1 день.

Унский Маяк - район местоположения метеостанции


Название, широта, долгота, высота метеостанции:
Унский Маяк 64.8°ш. 38.4°д. 5 м над ур. моря [Российская Федерация]

Дополнительная информация

В oтличие oт бoльшинства пoгoдных сайтoв мы публикуем пoдрoбную метеoинфoрмацию в детальнoм прoфессиoнальнoм фoрмате.

Характеристики температуры и влажнoсти вoздуха измеряются на высoте 2 м в тени вдали oт зданий и деревьев.
Скoрoсть ветра измеряется на высoте 10 м (на урoвне рoста челoвека скoрoсть ветра ниже в 1.5-2 раза). Если метеoстанция нахoдится в гoрoде или в лесу, тo скoрoсть ветра занижена на 2-4 м/с пo сравнению с oткрытым местoм. Скoрoсть ветра над акватoриями крупных рек и oзёр, а также на вершинах хoлмoв на 2-5 м/с выше, чем в oбычных услoвиях.
Атмoсфернoе давление в разных тoчках местнoсти мoжет значительнo oтличаться oт давления на метеoстанции, в зависимoсти oт услoвий рельефа (при пoдъёме на 10 м давление пoнижается примернo на 1 мм рт.ст.).